Home   Weather   Tábor   Past weeks

Flag for Czech Republic Past Weather in Tábor, Czech Republic — Yesterday and Last 2 Weeks

Now
41 °F

Partly sunny.


Feels Like: 37 °F
Forecast: 31 / 46 °F
Wind: 6 mph from West

Location: Kocelovice

Current Time: Feb 25, 2017 at 2:56:21 pm

Latest Report: Feb 25, 2017 at 1:00 pm


Visibility: 41 mi

Pressure: 30.22 "Hg

Humidity: 50%

Dew Point: 23 °F

Location of TáborLocation

Past Weather in Tábor — Graph

°F

Tábor Temperature Yesterday

Maximum temperature yesterday: 50 °F (at 12:00 am)
Minimum temperature yesterday: 30 °F (at 11:00 pm)
Average temperature yesterday: 40 °F

High & Low Weather Summary for the Past Weeks

 TemperatureHumidityPressure
High59 °F (Feb 23, 7:00 pm)100% (Feb 17, 8:00 am)30.67 "Hg (Feb 17, 8:00 am)
Low22 °F (Feb 14, 7:00 am)29% (Feb 23, 7:00 pm)29.32 "Hg (Feb 23, 8:00 pm)
Average37 °F79%30.21 "Hg
* Reported Feb 10 1:00 pm — Feb 25 1:00 pm, Tábor, Weather by CustomWeather, © 2017

Note: Actual official high and low records may vary slightly from our data, if they occured in-between our weather recording intervals... More about our weather records

Advertising

Tábor Weather History for the Previous 24 Hours

Scroll right to see more
 ConditionsComfort  
Time TempWeatherWind HumidityBarometerVisibility
1:00 pm
Sat, Feb 25
41 °FPartly sunny.6 mph50%30.22 "Hg40 mi
12:00 pm38 °FPartly sunny.6 mph55%30.25 "Hg40 mi
11:00 am37 °FPartly sunny.7 mph63%30.25 "Hg37 mi
10:00 am35 °FPartly sunny.7 mph67%30.26 "Hg34 mi
9:00 am33 °FPartly sunny.N/A72%30.25 "Hg31 mi
8:00 am30 °FScattered clouds.2 mph77%30.24 "Hg25 mi
7:00 am28 °FPassing clouds.3 mph80%30.23 "Hg22 mi
6:00 am28 °FChilly.5 mph80%30.20 "Hg12 mi
5:00 am28 °FChilly.5 mph80%30.19 "Hg12 mi
4:00 am28 °FChilly.5 mph81%30.18 "Hg12 mi
3:00 am29 °FChilly.3 mph80%30.16 "Hg12 mi
2:00 am29 °FChilly.2 mph83%30.15 "Hg12 mi
1:00 am30 °FChilly.2 mph79%30.14 "Hg12 mi
12:00 am31 °FChilly.3 mph76%30.13 "Hg12 mi
11:00 pm
Fri, Feb 24
30 °FChilly.2 mph78%30.11 "Hg12 mi
10:00 pm31 °FChilly.3 mph74%30.09 "Hg12 mi
9:00 pm33 °FPassing clouds.5 mph68%30.06 "Hg34 mi
8:00 pm34 °FPassing clouds.6 mph68%30.03 "Hg28 mi
7:00 pm35 °FPassing clouds.8 mph66%29.99 "Hg11 mi
6:00 pm36 °FSnow flurries. Passing clouds.8 mph61%29.93 "Hg5 mi
5:00 pm38 °FScattered clouds.9 mph57%29.89 "Hg12 mi
4:00 pm37 °FPartly sunny.9 mph66%29.87 "Hg12 mi
3:00 pm37 °FScattered clouds.9 mph84%29.85 "Hg10 mi
2:00 pm42 °FPartly sunny.13 mph48%29.79 "Hg10 mi
Weather by CustomWeather, © 2017

See weather overviewHow to use our weather pages